Simultaneous Nadir Overpasses (SNOs) Predictions

Prediction of SNOs between METOP-B and NOAA-19 Satellite Orbit:

Table of predicted SNOs for the next 14.0 days since TLE Epoch: 7/20/2018
Index Date (METOP-B) Time (METOP-B) Lat,Lon (METOP-B) SZA (METOP-B ) Date (NOAA-19) Time (NOAA-19) Lat,Lon (NOAA-19) SZA (NOAA-19 ) Distance(km) Time Diff (sec)
1 07/31/2018 01:06:47 -78.55, -6.13 119.68 07/31/2018 01:05:38 -78.52, -6.13 119.71 2.89 69
2 07/31/2018 01:57:28 78.52, 161.05 60.30 07/31/2018 01:56:44 78.54, 160.98 60.31 2.35 44
3 07/31/2018 02:48:09 -78.53, -31.58 119.68 07/31/2018 02:47:39 -78.52, -31.61 119.70 1.40 30
4 07/31/2018 03:38:50 78.51, 135.60 60.30 07/31/2018 03:38:44 78.50, 135.74 60.30 3.16 6
5 07/31/2018 04:29:31 -78.51, -57.03 119.69 07/31/2018 04:29:40 -78.52, -57.09 119.68 1.40 9
6 07/31/2018 05:20:11 78.49, 110.15 60.30 07/31/2018 05:20:44 78.50, 110.27 60.31 2.76 33
7 07/31/2018 06:10:52 -78.49, -82.48 119.69 07/31/2018 06:11:40 -78.51, -82.57 119.67 2.91 48
8 07/31/2018 07:01:33 78.47, 84.70 60.29 07/31/2018 07:02:45 78.49, 84.79 60.33 3.38 72




NCC Satellite Simultaneous Nadir Overpasses (SNOs) Prediction Service
